TimeEDT,TemperatureF,Dew PointF,Humidity,Sea Level PressureIn,VisibilityMPH,Wind Direction,Wind SpeedMPH,Gust SpeedMPH,PrecipitationIn,Events,Conditions,WindDirDegrees,DateUTC
12:15 AM,47.3,40.8,78,29.96,10.0,Calm,Calm,-,N/A,,Clear,0,2012-10-03 04:15:00
12:34 AM,46.0,39.9,79,29.96,10.0,Calm,Calm,-,N/A,,Clear,0,2012-10-03 04:34:00
12:55 AM,45.5,39.2,79,29.96,10.0,Calm,Calm,-,N/A,,Clear,0,2012-10-03 04:55:00
1:15 AM,45.1,39.6,81,29.95,10.0,Calm,Calm,-,N/A,,Clear,0,2012-10-03 05:15:00
1:34 AM,44.4,39.2,82,29.95,10.0,Calm,Calm,-,N/A,,Clear,0,2012-10-03 05:34:00
1:55 AM,44.6,39.7,83,29.95,10.0,Calm,Calm,-,N/A,,Clear,0,2012-10-03 05:55:00
2:15 AM,43.9,39.7,85,29.94,10.0,Calm,Calm,-,N/A,,Clear,0,2012-10-03 06:15:00
2:34 AM,43.9,40.5,88,29.94,10.0,Calm,Calm,-,N/A,,Scattered Clouds,0,2012-10-03 06:34:00
2:55 AM,46.0,41.9,85,29.94,10.0,Calm,Calm,-,N/A,,Mostly Cloudy,0,2012-10-03 06:55:00
3:15 AM,46.4,41.9,84,29.94,10.0,Calm,Calm,-,N/A,,Overcast,0,2012-10-03 07:15:00
3:35 AM,48.4,42.4,80,29.93,10.0,Calm,Calm,-,N/A,,Overcast,0,2012-10-03 07:35:00
3:54 AM,48.2,42.1,79,29.94,10.0,Calm,Calm,-,N/A,,Overcast,0,2012-10-03 07:54:00
4:14 AM,49.1,43.9,82,29.95,10.0,Calm,Calm,-,N/A,,Overcast,0,2012-10-03 08:14:00
4:35 AM,49.3,43.7,81,29.96,10.0,Calm,Calm,-,N/A,,Overcast,0,2012-10-03 08:35:00
4:55 AM,50.0,43.7,79,29.96,10.0,Calm,Calm,-,N/A,,Overcast,0,2012-10-03 08:55:00
5:14 AM,50.0,44.1,80,29.96,10.0,WNW,5.8,-,N/A,,Overcast,290,2012-10-03 09:14:00
5:35 AM,50.4,43.9,78,29.96,10.0,WNW,5.8,-,N/A,,Overcast,290,2012-10-03 09:35:00
5:55 AM,50.9,44.1,77,29.96,10.0,WNW,5.8,-,N/A,,Overcast,290,2012-10-03 09:55:00
6:14 AM,51.1,44.4,78,29.97,10.0,WNW,5.8,-,N/A,,Overcast,290,2012-10-03 10:14:00
6:35 AM,51.8,44.6,76,29.97,10.0,WNW,4.6,-,N/A,,Overcast,290,2012-10-03 10:35:00
6:55 AM,52.0,45.3,78,29.97,7.0,WNW,4.6,-,N/A,,Overcast,300,2012-10-03 10:55:00
7:14 AM,51.8,45.7,80,29.98,10.0,North,3.5,-,N/A,Rain,Rain,10,2012-10-03 11:14:00
7:35 AM,51.4,46.0,82,29.97,10.0,WNW,3.5,-,N/A,,Overcast,300,2012-10-03 11:35:00
7:55 AM,51.8,46.8,83,29.97,10.0,NW,4.6,-,N/A,,Overcast,320,2012-10-03 11:55:00
8:14 AM,51.8,48.2,88,29.97,10.0,WNW,5.8,-,N/A,,Overcast,290,2012-10-03 12:14:00
8:35 AM,52.0,48.9,89,29.97,10.0,WNW,5.8,-,N/A,,Overcast,290,2012-10-03 12:35:00
8:55 AM,52.7,49.6,89,29.97,10.0,North,3.5,-,N/A,,Overcast,350,2012-10-03 12:55:00
9:15 AM,53.6,50.2,88,29.98,10.0,NW,4.6,-,N/A,,Overcast,310,2012-10-03 13:15:00
9:35 AM,54.5,50.9,88,29.98,10.0,WNW,5.8,-,N/A,,Overcast,300,2012-10-03 13:35:00
9:55 AM,57.7,51.4,79,29.98,10.0,NNE,6.9,-,N/A,,Overcast,20,2012-10-03 13:55:00
10:14 AM,59.4,51.4,75,29.98,10.0,NE,5.8,-,N/A,,Scattered Clouds,40,2012-10-03 14:14:00
10:35 AM,60.1,51.8,74,29.99,10.0,SE,5.8,-,N/A,,Mostly Cloudy,130,2012-10-03 14:35:00
11:15 AM,59.2,52.7,79,29.99,10.0,SSE,5.8,-,N/A,,Overcast,150,2012-10-03 15:15:00
11:35 AM,60.3,52.9,77,29.99,10.0,South,8.1,-,N/A,,Overcast,180,2012-10-03 15:35:00
11:54 AM,60.8,53.4,77,29.98,10.0,SE,8.1,-,N/A,,Overcast,140,2012-10-03 15:54:00
12:15 PM,61.3,53.6,76,29.98,10.0,ESE,5.8,-,N/A,,Overcast,120,2012-10-03 16:15:00
12:35 PM,61.9,53.6,74,29.98,10.0,ESE,5.8,-,N/A,,Overcast,110,2012-10-03 16:35:00
12:54 PM,63.3,54.0,71,29.98,10.0,South,10.4,-,N/A,,Overcast,170,2012-10-03 16:54:00
1:15 PM,63.9,53.4,69,29.98,10.0,ESE,5.8,-,N/A,,Overcast,120,2012-10-03 17:15:00
1:35 PM,64.8,53.6,67,29.98,10.0,South,8.1,-,N/A,,Overcast,170,2012-10-03 17:35:00
1:54 PM,64.4,53.6,68,29.97,10.0,SE,5.8,-,N/A,,Overcast,140,2012-10-03 17:54:00
2:15 PM,64.0,53.8,69,29.97,10.0,South,6.9,-,N/A,,Overcast,170,2012-10-03 18:15:00
2:35 PM,62.6,54.0,73,29.97,10.0,South,11.5,19.6,N/A,,Overcast,180,2012-10-03 18:35:00
2:55 PM,61.0,56.1,84,29.97,7.0,South,11.5,-,N/A,,Overcast,190,2012-10-03 18:55:00
3:14 PM,61.0,55.9,83,29.97,7.0,SSW,9.2,-,N/A,,Overcast,200,2012-10-03 19:14:00
3:35 PM,61.0,55.6,82,29.97,10.0,SSW,6.9,-,N/A,,Overcast,210,2012-10-03 19:35:00
3:55 PM,61.3,55.2,80,29.97,10.0,SW,5.8,-,N/A,,Overcast,220,2012-10-03 19:55:00
4:14 PM,61.5,55.0,79,29.97,7.0,South,9.2,-,N/A,,Overcast,190,2012-10-03 20:14:00
4:35 PM,61.3,56.5,84,29.97,7.0,SSW,11.5,-,N/A,,Overcast,200,2012-10-03 20:35:00
4:55 PM,61.0,57.4,88,29.97,10.0,South,10.4,-,N/A,,Overcast,190,2012-10-03 20:55:00
5:14 PM,60.8,57.2,88,29.98,10.0,SSW,11.5,-,N/A,,Overcast,200,2012-10-03 21:14:00
5:35 PM,60.3,57.2,90,29.98,3.0,SSW,10.4,-,N/A,Rain,Rain,200,2012-10-03 21:35:00
5:55 PM,59.4,57.2,93,29.98,2.0,SSW,9.2,-,N/A,,Heavy Drizzle,210,2012-10-03 21:55:00
6:14 PM,59.0,56.8,93,29.98,3.0,SSW,11.5,-,N/A,,Drizzle,200,2012-10-03 22:14:00
6:55 PM,58.6,56.5,93,29.99,7.0,South,10.4,-,N/A,,Overcast,190,2012-10-03 22:55:00
7:14 PM,58.6,56.7,93,29.99,5.0,SSW,10.4,-,N/A,,Overcast,200,2012-10-03 23:14:00
7:35 PM,58.8,56.7,93,29.98,10.0,SSE,4.6,-,N/A,,Overcast,150,2012-10-03 23:35:00
7:55 PM,59.0,56.1,90,29.99,10.0,ESE,10.4,-,N/A,,Overcast,120,2012-10-03 23:55:00
8:14 PM,59.0,56.7,92,29.99,7.0,South,9.2,-,N/A,,Overcast,180,2012-10-04 00:14:00
8:35 PM,58.6,56.5,93,30.00,7.0,West,4.6,-,N/A,,Overcast,270,2012-10-04 00:35:00
8:55 PM,58.6,56.5,93,30.01,5.0,South,8.1,-,N/A,,Overcast,190,2012-10-04 00:55:00
9:14 PM,58.5,56.5,93,30.01,5.0,SSW,10.4,-,N/A,,Overcast,200,2012-10-04 01:14:00
9:35 PM,58.3,56.5,94,30.01,5.0,South,6.9,-,N/A,,Overcast,190,2012-10-04 01:35:00
9:54 PM,58.5,56.5,93,30.01,5.0,South,8.1,-,N/A,,Overcast,190,2012-10-04 01:54:00
10:15 PM,58.5,56.5,93,30.01,7.0,SSW,9.2,-,N/A,,Overcast,200,2012-10-04 02:15:00
10:35 PM,58.3,56.3,93,30.01,5.0,South,6.9,-,N/A,Rain,Light Rain,190,2012-10-04 02:35:00
10:54 PM,58.3,56.5,94,30.01,3.0,SW,5.8,-,N/A,,Drizzle,220,2012-10-04 02:54:00
11:15 PM,58.1,56.5,94,30.01,3.0,South,5.8,-,N/A,Rain,Rain,170,2012-10-04 03:15:00
11:35 PM,58.1,56.5,94,30.01,5.0,SSW,10.4,-,N/A,,Overcast,200,2012-10-04 03:35:00
11:54 PM,58.1,56.5,94,30.01,5.0,SSW,10.4,-,N/A,,Overcast,200,2012-10-04 03:54:00